Zurück zum Katalog

STARLINK-34369

AktivKommunikationVLEO
NORAD 64297·PAYLOAD·🇺🇸 United States

Gestartet Jun 8, 2025 von Vandenberg Space Force Base

Loading…

Nächste Überflüge (nächste 24 Stunden)

TLE

AktuellSource: CelesTrak SupGP

Epoche: Sep 15, 2026, 03:11 UTC

1 64297C 25123G   26258.13312500 -.00050049  00000+0 -17412-2 0  2583
2 64297  70.0000  75.2563 0003169 271.8475 103.9650 15.29601283    10

Verfolge STARLINK-34369 in Echtzeit mit AllMySat

Download on the App Store